Regional Weather Roundup
Issued by NWS Lake Charles, LA

Home | Current Version | Previous Version | Text Only | Print | Product List | Glossary On
Versions: 1 2 3 4 5 6 7 8 9 10 11 12 13 14 15 16 17 18 19 20 21 22 23 24 25 26 27 28 29 30 31 32 33 34 35 36 37 38 39 40 41 42 43 44 45 46 47 48 49 50
000
ASUS44 KLCH 202010
RWRLCH
RWRLCH
REGIONAL WEATHER ROUNDUP
NATIONAL WEATHER SERVICE LAKE CHARLES LA
300 PM CDT SAT SEP 20 2014

Note: "fair" indicates few or no clouds below 12,000 feet with no
significant weather and/or obstructions to visibility.


ACROSS SOUTHEAST TEXAS

CITY           SKY/WX    TMP DP  RH WIND       PRES   REMARKS
BEAUMONT       LGT RAIN  90  71  53 E12       29.92F
BEAUMONT CITY    N/A     85  70  60 E6        29.94F
ORANGE         CLEAR     87  68  52 E10       29.95F
JASPER         MOSUNNY   86  67  52 E7        29.98F
$$

ACROSS CENTRAL LOUISIANA

CITY           SKY/WX    TMP DP  RH WIND       PRES   REMARKS
LEESVILLE      PTSUNNY   87  66  49 NE9       29.96F
FULLERTON        N/A     89  66  46 VRB7      29.94F
ALEXANDRIA INT MOSUNNY   89  67  47 NE8       29.95F
ESLER FIELD    SUNNY     91  67  44 E7        29.97F
DERIDDER         N/A     87  67  51 NE6       29.98F HAZE
OAKDALE        PTCLDY    89  68  49 E6        29.96F HAZE
OPELOUSAS        N/A     88  69  53 E7        29.95F
$$

ACROSS SOUTHWEST AND SOUTH CENTRAL LOUISIANA

CITY           SKY/WX    TMP DP  RH WIND       PRES   REMARKS
SULPHUR        MOCLDY    87  71  57 NE7       29.94F
LAKE CHARLES   PTSUNNY   88  70  55 E12       29.93F
CHENNAULT INT  MOSUNNY   86  70  58 E7        29.94F
CAMERON PHI    CLEAR     86  73  66 SE12      29.96F
DEQUINCY         N/A     87  69  55 E7        29.94F
JENNINGS         N/A     87  70  57 E10       29.94F
LAFAYETTE      MOSUNNY   88  69  53 NE8       29.94F
NEW IBERIA     SUNNY     89  69  51 E15       29.94F
ABBEVILLE      MOCLDY    88  71  56 NE12      29.93F
PATTERSON      MOSUNNY   88  72  58 NE13      29.95F
SALT POINT       N/A     91  73  55 VRB5      29.91F
$$

SELECTED SITES ACROSS THE REGION

CITY           SKY/WX    TMP DP  RH WIND       PRES   REMARKS
HOUSTON BUSH   MOSUNNY   87  72  60 E8        29.93F
HOUSTON HOBBY  MOSUNNY   88  72  58 E10       29.92F
GALVESTON      MOSUNNY   84  76  76 NE14      29.92F
COLLEGE STAT   MOSUNNY   87  68  52 E3        29.94F
CONROE         PTSUNNY   87  70  56 VRB6      29.95F
HUNTSVILLE     MOSUNNY   88  68  51 E6        29.95F
LUFKIN         SUNNY     91  66  43 SE7       29.96F
SHREVEPORT     MOSUNNY   92  62  36 SE9       29.97F
MONROE         MOSUNNY   92  67  43 VRB6      29.98F
NATCHEZ MS     MOSUNNY   88  70  55 E7        29.98F
BATON ROUGE    MOSUNNY   88  67  49 E9        29.95F
N.O. INTL ARPT MOSUNNY   88  65  46 E10G21    29.95F
SLIDELL        MOSUNNY   89  67  47 NE6       29.95F
$$

MARINE REPORTS

STATION/POSITION TIME  TEMP    WIND        PRES    VSBY  WAVE
                       AIR SEA DIR/SP/G                  HT/PER
                 (UTC) (F)     (DEG/KT/KT) (MB)    (MI)  (FT/S)
BUOY 30 S HIGH I 2000   82 84   70/ 16/ 19 1012.5F         3/ 6
SEA RIM ST PARK  2000   84     110/ 12/ 15 1013.9F
PORT ARTHUR      2000      83  100/  9/ 11 1013.6F
SABINE PASS N    2000   83 83  120/ 15/ 19 1013.6F
TEXAS POINT      2000   82 82  100/ 13/ 16 1013.7F
CALCASIEU PASS   2000   83 82  150/ 10/ 11 1014.7F
LK CHARLES BEACH 2000   89 84              1013.8F
MARSH ISLAND     NOT AVBL
FRESH WATER LOCK 2000   87 81   80/  9/ 14 1013.3S
AMERADA PASS     2000   84 83  100/ 11/ 17 1013.2S
$$



USA.gov is the U.S. government's official web portal to all federal, state and local government web resources and services.